Year,Month,Day,Hour,Minute,Value (Times are PST for temperature in C)
2007,01,09,00,00,6.90
2007,01,09,00,01,6.80
2007,01,09,00,02,6.80
2007,01,09,00,03,6.80
2007,01,09,00,04,6.80
2007,01,09,00,05,6.80
2007,01,09,00,06,6.80
2007,01,09,00,07,6.80
2007,01,09,00,08,6.80
2007,01,09,00,09,6.80
2007,01,09,00,10,6.80
2007,01,09,00,11,6.80
2007,01,09,00,12,6.80
2007,01,09,00,13,6.80
2007,01,09,00,14,6.80
2007,01,09,00,15,6.80
2007,01,09,00,16,6.80
2007,01,09,00,17,6.80
2007,01,09,00,18,6.80
2007,01,09,00,19,6.80
2007,01,09,00,20,6.80
2007,01,09,00,21,6.80
2007,01,09,00,22,6.80
2007,01,09,00,23,6.80
2007,01,09,00,24,6.80
2007,01,09,00,25,6.80
2007,01,09,00,26,6.80
2007,01,09,00,27,6.80
2007,01,09,00,28,6.80
2007,01,09,00,29,6.80
2007,01,09,00,30,6.80
2007,01,09,00,31,6.80
2007,01,09,00,32,6.80
2007,01,09,00,33,6.80
2007,01,09,00,34,6.70
2007,01,09,00,35,6.70
2007,01,09,00,36,6.70
2007,01,09,00,37,6.60
2007,01,09,00,38,6.60
2007,01,09,00,39,6.60
2007,01,09,00,40,6.60
2007,01,09,00,41,6.60
2007,01,09,00,42,6.60
2007,01,09,00,43,6.60
2007,01,09,00,44,6.60
2007,01,09,00,45,6.50
2007,01,09,00,46,6.50
2007,01,09,00,47,6.60
2007,01,09,00,48,6.60
2007,01,09,00,49,6.60
2007,01,09,00,50,6.60
2007,01,09,00,51,6.60
2007,01,09,00,52,6.60
2007,01,09,00,53,6.60
2007,01,09,00,54,6.60
2007,01,09,00,55,6.60
2007,01,09,00,56,6.60
2007,01,09,00,57,6.60
2007,01,09,00,58,6.60
2007,01,09,00,59,6.60
2007,01,09,01,00,6.60
2007,01,09,01,01,6.60
2007,01,09,01,02,6.60
2007,01,09,01,03,6.70
2007,01,09,01,04,6.70
2007,01,09,01,05,6.70
2007,01,09,01,06,6.70
2007,01,09,01,07,6.70
2007,01,09,01,08,6.70
2007,01,09,01,09,6.70
2007,01,09,01,10,6.70
2007,01,09,01,11,6.80
2007,01,09,01,12,6.80
2007,01,09,01,13,6.80
2007,01,09,01,14,6.80
2007,01,09,01,15,6.80
2007,01,09,01,16,6.80
2007,01,09,01,17,6.80
2007,01,09,01,18,6.80
2007,01,09,01,19,6.80
2007,01,09,01,20,6.80
2007,01,09,01,21,6.80
2007,01,09,01,22,6.80
2007,01,09,01,23,6.80
2007,01,09,01,24,6.80
2007,01,09,01,25,6.80
2007,01,09,01,26,6.80
2007,01,09,01,27,6.80
2007,01,09,01,28,6.70
2007,01,09,01,29,6.70
2007,01,09,01,30,6.70
2007,01,09,01,31,6.70
2007,01,09,01,32,6.70
2007,01,09,01,33,6.70
2007,01,09,01,34,6.70
2007,01,09,01,35,6.70
2007,01,09,01,36,6.70
2007,01,09,01,37,6.70
2007,01,09,01,38,6.70
2007,01,09,01,39,6.70
2007,01,09,01,40,6.70
2007,01,09,01,41,6.60
2007,01,09,01,42,6.60
2007,01,09,01,43,6.60
2007,01,09,01,44,6.60
2007,01,09,01,45,6.60
2007,01,09,01,46,6.60
2007,01,09,01,47,6.60
2007,01,09,01,48,6.60
2007,01,09,01,49,6.60
2007,01,09,01,50,6.60
2007,01,09,01,51,6.60
2007,01,09,01,52,6.60
2007,01,09,01,53,6.60
2007,01,09,01,54,6.70
2007,01,09,01,55,6.70
2007,01,09,01,56,6.70
2007,01,09,01,57,6.70
2007,01,09,01,58,6.70
2007,01,09,01,59,6.60
2007,01,09,02,00,6.60
2007,01,09,02,01,6.60
2007,01,09,02,02,6.60
2007,01,09,02,03,6.60
2007,01,09,02,04,6.60
2007,01,09,02,05,6.60
2007,01,09,02,06,6.60
2007,01,09,02,07,6.50
2007,01,09,02,08,6.40
2007,01,09,02,09,6.50
2007,01,09,02,10,6.50
2007,01,09,02,11,6.60
2007,01,09,02,12,6.60
2007,01,09,02,13,6.60
2007,01,09,02,14,6.60
2007,01,09,02,15,6.60
2007,01,09,02,16,6.60
2007,01,09,02,17,6.60
2007,01,09,02,18,6.60
2007,01,09,02,19,6.60
2007,01,09,02,20,6.60
2007,01,09,02,21,6.60
2007,01,09,02,22,6.60
2007,01,09,02,23,6.60
2007,01,09,02,24,6.60
2007,01,09,02,25,6.60
2007,01,09,02,26,6.60
2007,01,09,02,27,6.60
2007,01,09,02,28,6.60
2007,01,09,02,29,6.60
2007,01,09,02,30,6.60
2007,01,09,02,31,6.60
2007,01,09,02,32,6.60
2007,01,09,02,33,6.60
2007,01,09,02,34,6.60
2007,01,09,02,35,6.60
2007,01,09,02,36,6.60
2007,01,09,02,37,6.60
2007,01,09,02,38,6.60
2007,01,09,02,39,6.60
2007,01,09,02,40,6.70
2007,01,09,02,41,6.70
2007,01,09,02,42,6.70
2007,01,09,02,43,6.60
2007,01,09,02,44,6.60
2007,01,09,02,45,6.60
2007,01,09,02,46,6.60
2007,01,09,02,47,6.60
2007,01,09,02,48,6.60
2007,01,09,02,49,6.60
2007,01,09,02,50,6.50
2007,01,09,02,51,6.50
2007,01,09,02,52,6.60
2007,01,09,02,53,6.60
2007,01,09,02,54,6.60
2007,01,09,02,55,6.60
2007,01,09,02,56,6.60
2007,01,09,02,57,6.70
2007,01,09,02,58,6.70
2007,01,09,02,59,6.80
2007,01,09,03,00,6.70
2007,01,09,03,01,6.70
2007,01,09,03,02,6.60
2007,01,09,03,03,6.60
2007,01,09,03,04,6.60
2007,01,09,03,05,6.70
2007,01,09,03,06,6.70
2007,01,09,03,07,6.70
2007,01,09,03,08,6.70
2007,01,09,03,09,6.80
2007,01,09,03,10,6.80
2007,01,09,03,11,6.80
2007,01,09,03,12,6.80
2007,01,09,03,13,6.80
2007,01,09,03,14,6.80
2007,01,09,03,15,6.80
2007,01,09,03,16,6.70
2007,01,09,03,17,6.70
2007,01,09,03,18,6.80
2007,01,09,03,19,6.80
2007,01,09,03,20,6.80
2007,01,09,03,21,6.80
2007,01,09,03,22,6.80
2007,01,09,03,23,6.80
2007,01,09,03,24,6.80
2007,01,09,03,25,6.80
2007,01,09,03,26,6.80
2007,01,09,03,27,6.80
2007,01,09,03,28,6.80
2007,01,09,03,29,6.80
2007,01,09,03,30,6.80
2007,01,09,03,31,6.70
2007,01,09,03,32,6.70
2007,01,09,03,33,6.80
2007,01,09,03,34,6.80
2007,01,09,03,35,6.80
2007,01,09,03,36,6.80
2007,01,09,03,37,6.80
2007,01,09,03,38,6.80
2007,01,09,03,39,6.80
2007,01,09,03,40,6.80
2007,01,09,03,41,6.90
2007,01,09,03,42,6.90
2007,01,09,03,43,6.90
2007,01,09,03,44,7.00
2007,01,09,03,45,7.00
2007,01,09,03,46,7.00
2007,01,09,03,47,7.00
2007,01,09,03,48,7.00
2007,01,09,03,49,7.00
2007,01,09,03,50,7.10
2007,01,09,03,51,7.10
2007,01,09,03,52,7.10
2007,01,09,03,53,7.10
2007,01,09,03,54,7.10
2007,01,09,03,55,7.20
2007,01,09,03,56,7.20
2007,01,09,03,57,7.20
2007,01,09,03,58,7.20
2007,01,09,03,59,7.20
2007,01,09,04,00,7.10
2007,01,09,04,01,7.10
2007,01,09,04,02,7.00
2007,01,09,04,03,6.80
2007,01,09,04,04,6.80
2007,01,09,04,05,6.80
2007,01,09,04,06,6.70
2007,01,09,04,07,6.70
2007,01,09,04,08,6.70
2007,01,09,04,09,6.70
2007,01,09,04,10,6.70
2007,01,09,04,11,6.70
2007,01,09,04,12,6.70
2007,01,09,04,13,6.70
2007,01,09,04,14,6.80
2007,01,09,04,15,6.80
2007,01,09,04,16,6.90
2007,01,09,04,17,6.90
2007,01,09,04,18,6.90
2007,01,09,04,19,6.90
2007,01,09,04,20,6.90
2007,01,09,04,21,7.00
2007,01,09,04,22,7.00
2007,01,09,04,23,6.90
2007,01,09,04,24,7.00
2007,01,09,04,25,7.00
2007,01,09,04,26,7.00
2007,01,09,04,27,7.00
2007,01,09,04,28,7.00
2007,01,09,04,29,7.10
2007,01,09,04,30,7.10
2007,01,09,04,31,7.10
2007,01,09,04,32,7.20
2007,01,09,04,33,7.20
2007,01,09,04,34,7.30
2007,01,09,04,35,7.30
2007,01,09,04,36,7.30
2007,01,09,04,37,7.30
2007,01,09,04,38,7.30
2007,01,09,04,39,7.30
2007,01,09,04,40,7.40
2007,01,09,04,41,7.50
2007,01,09,04,42,7.60
2007,01,09,04,43,7.70
2007,01,09,04,44,7.80
2007,01,09,04,45,7.80
2007,01,09,04,46,7.90
2007,01,09,04,47,7.90
2007,01,09,04,48,7.90
2007,01,09,04,49,7.90
2007,01,09,04,50,7.90
2007,01,09,04,51,7.90
2007,01,09,04,52,7.90
2007,01,09,04,53,8.00
2007,01,09,04,54,8.00
2007,01,09,04,55,8.10
2007,01,09,04,56,8.20
2007,01,09,04,57,8.20
2007,01,09,04,58,8.30
2007,01,09,04,59,8.40
2007,01,09,05,00,8.40
2007,01,09,05,01,8.50
2007,01,09,05,02,8.50
2007,01,09,05,03,8.50
2007,01,09,05,04,8.60
2007,01,09,05,05,8.60
2007,01,09,05,06,8.70
2007,01,09,05,07,8.70
2007,01,09,05,08,8.70
2007,01,09,05,09,8.70
2007,01,09,05,10,8.80
2007,01,09,05,11,8.90
2007,01,09,05,12,8.90
2007,01,09,05,13,9.00
2007,01,09,05,14,9.00
2007,01,09,05,15,9.00
2007,01,09,05,16,9.00
2007,01,09,05,17,9.00
2007,01,09,05,18,9.00
2007,01,09,05,19,9.00
2007,01,09,05,20,9.00
2007,01,09,05,21,9.00
2007,01,09,05,22,9.10
2007,01,09,05,23,9.10
2007,01,09,05,24,9.10
2007,01,09,05,25,9.20
2007,01,09,05,26,9.20
2007,01,09,05,27,9.20
2007,01,09,05,28,9.20
2007,01,09,05,29,9.20
2007,01,09,05,30,9.20
2007,01,09,05,31,9.20
2007,01,09,05,32,9.20
2007,01,09,05,33,9.20
2007,01,09,05,34,9.20
2007,01,09,05,35,9.20
2007,01,09,05,36,9.20
2007,01,09,05,37,9.20
2007,01,09,05,38,9.20
2007,01,09,05,39,9.30
2007,01,09,05,40,9.30
2007,01,09,05,41,9.30
2007,01,09,05,42,9.20
2007,01,09,05,43,9.20
2007,01,09,05,44,9.20
2007,01,09,05,45,9.20
2007,01,09,05,46,9.20
2007,01,09,05,47,9.20
2007,01,09,05,48,9.20
2007,01,09,05,49,9.20
2007,01,09,05,50,9.20
2007,01,09,05,51,9.20
2007,01,09,05,52,9.20
2007,01,09,05,53,9.20
2007,01,09,05,54,9.20
2007,01,09,05,55,9.20
2007,01,09,05,56,9.20
2007,01,09,05,57,9.20
2007,01,09,05,58,9.20
2007,01,09,05,59,9.20
2007,01,09,06,00,9.30
2007,01,09,06,01,9.30
2007,01,09,06,02,9.30
2007,01,09,06,03,9.30
2007,01,09,06,04,9.40
2007,01,09,06,05,9.40
2007,01,09,06,06,9.30
2007,01,09,06,07,9.30
2007,01,09,06,08,9.30
2007,01,09,06,09,9.40
2007,01,09,06,10,9.40
2007,01,09,06,11,9.40
2007,01,09,06,12,9.40
2007,01,09,06,13,9.40
2007,01,09,06,14,9.30
2007,01,09,06,15,9.30
2007,01,09,06,16,9.30
2007,01,09,06,17,9.30
2007,01,09,06,18,9.30
2007,01,09,06,19,9.30
2007,01,09,06,20,9.30
2007,01,09,06,21,9.30
2007,01,09,06,22,9.30
2007,01,09,06,23,9.30
2007,01,09,06,24,9.30
2007,01,09,06,25,9.30
2007,01,09,06,26,9.30
2007,01,09,06,27,9.30
2007,01,09,06,28,9.30
2007,01,09,06,29,9.20
2007,01,09,06,30,9.20
2007,01,09,06,31,9.20
2007,01,09,06,32,9.20
2007,01,09,06,33,9.20
2007,01,09,06,34,9.20
2007,01,09,06,35,9.10
2007,01,09,06,36,9.10
2007,01,09,06,37,9.10
2007,01,09,06,38,9.10
2007,01,09,06,39,9.10
2007,01,09,06,40,9.10
2007,01,09,06,41,9.10
2007,01,09,06,42,9.10
2007,01,09,06,43,9.10
2007,01,09,06,44,9.10
2007,01,09,06,45,9.10
2007,01,09,06,46,9.00
2007,01,09,06,47,9.00
2007,01,09,06,48,9.00
2007,01,09,06,49,8.90
2007,01,09,06,50,8.90
2007,01,09,06,51,8.90
2007,01,09,06,52,8.90
2007,01,09,06,53,8.90
2007,01,09,06,54,9.00
2007,01,09,06,55,9.00
2007,01,09,06,56,9.00
2007,01,09,06,57,8.90
2007,01,09,06,58,8.90
2007,01,09,06,59,8.90
2007,01,09,07,00,8.90
2007,01,09,07,01,8.90
2007,01,09,07,02,8.90
2007,01,09,07,03,8.90
2007,01,09,07,04,8.80
2007,01,09,07,05,8.80
2007,01,09,07,06,8.80
2007,01,09,07,07,8.80
2007,01,09,07,08,8.80
2007,01,09,07,09,8.70
2007,01,09,07,10,8.70
2007,01,09,07,11,8.70
2007,01,09,07,12,8.70
2007,01,09,07,13,8.70
2007,01,09,07,14,8.70
2007,01,09,07,15,8.70
2007,01,09,07,16,8.70
2007,01,09,07,17,8.70
2007,01,09,07,18,8.70
2007,01,09,07,19,8.70
2007,01,09,07,20,8.70
2007,01,09,07,21,8.60
2007,01,09,07,22,8.70
2007,01,09,07,23,8.70
2007,01,09,07,24,8.70
2007,01,09,07,25,8.80
2007,01,09,07,26,8.80
2007,01,09,07,27,8.80
2007,01,09,07,28,8.90
2007,01,09,07,29,8.90
2007,01,09,07,30,8.90
2007,01,09,07,31,8.90
2007,01,09,07,32,8.90
2007,01,09,07,33,8.90
2007,01,09,07,34,9.10
2007,01,09,07,35,9.10
2007,01,09,07,36,9.10
2007,01,09,07,37,9.20
2007,01,09,07,38,9.20
2007,01,09,07,39,9.20
2007,01,09,07,40,9.20
2007,01,09,07,41,9.20
2007,01,09,07,42,9.20
2007,01,09,07,43,9.20
2007,01,09,07,44,9.30
2007,01,09,07,45,9.30
2007,01,09,07,46,9.30
2007,01,09,07,47,9.30
2007,01,09,07,48,9.40
2007,01,09,07,49,9.40
2007,01,09,07,50,9.40
2007,01,09,07,51,9.40
2007,01,09,07,52,9.50
2007,01,09,07,53,9.50
2007,01,09,07,54,9.50
2007,01,09,07,55,9.50
2007,01,09,07,56,9.50
2007,01,09,07,57,9.50
2007,01,09,07,58,9.50
2007,01,09,07,59,9.50
2007,01,09,08,00,9.50
2007,01,09,08,01,9.50
2007,01,09,08,02,9.50
2007,01,09,08,03,9.60
2007,01,09,08,04,9.60
2007,01,09,08,05,9.60
2007,01,09,08,06,9.60
2007,01,09,08,07,9.60
2007,01,09,08,08,9.60
2007,01,09,08,09,9.50
2007,01,09,08,10,9.50
2007,01,09,08,11,9.50
2007,01,09,08,12,9.40
2007,01,09,08,13,9.40
2007,01,09,08,14,9.40
2007,01,09,08,15,9.40
2007,01,09,08,16,9.30
2007,01,09,08,17,9.20
2007,01,09,08,18,9.20
2007,01,09,08,19,9.20
2007,01,09,08,20,9.20
2007,01,09,08,21,9.20
2007,01,09,08,22,9.20
2007,01,09,08,23,9.20
2007,01,09,08,24,9.20
2007,01,09,08,25,9.20
2007,01,09,08,26,9.20
2007,01,09,08,27,9.20
2007,01,09,08,28,9.20
2007,01,09,08,29,9.20
2007,01,09,08,30,9.20
2007,01,09,08,31,9.30
2007,01,09,08,32,9.30
2007,01,09,08,33,9.40
2007,01,09,08,34,9.50
2007,01,09,08,35,9.50
2007,01,09,08,36,9.50
2007,01,09,08,37,9.50
2007,01,09,08,38,9.50
2007,01,09,08,39,9.60
2007,01,09,08,40,9.50
2007,01,09,08,41,9.50
2007,01,09,08,42,9.40
2007,01,09,08,43,9.40
2007,01,09,08,44,9.40
2007,01,09,08,45,9.30
2007,01,09,08,46,9.30
2007,01,09,08,47,9.20
2007,01,09,08,48,9.20
2007,01,09,08,49,9.10
2007,01,09,08,50,9.10
2007,01,09,08,51,9.00
2007,01,09,08,52,9.00
2007,01,09,08,53,9.00
2007,01,09,08,54,8.90
2007,01,09,08,55,8.90
2007,01,09,08,56,8.90
2007,01,09,08,57,8.90
2007,01,09,08,58,8.80
2007,01,09,08,59,8.80
2007,01,09,09,00,8.80
2007,01,09,09,01,8.80
2007,01,09,09,02,8.80
2007,01,09,09,03,8.80
2007,01,09,09,04,8.80
2007,01,09,09,05,8.80
2007,01,09,09,06,8.70
2007,01,09,09,07,8.70
2007,01,09,09,08,8.70
2007,01,09,09,09,8.70
2007,01,09,09,10,8.70
2007,01,09,09,11,8.70
2007,01,09,09,12,8.70
2007,01,09,09,13,8.70
2007,01,09,09,14,8.70
2007,01,09,09,15,8.70
2007,01,09,09,16,8.70
2007,01,09,09,17,8.70
2007,01,09,09,18,8.70
2007,01,09,09,19,8.70
2007,01,09,09,20,8.70
2007,01,09,09,21,8.70
2007,01,09,09,22,8.80
2007,01,09,09,23,8.80
2007,01,09,09,24,8.80
2007,01,09,09,25,8.80
2007,01,09,09,26,8.90
2007,01,09,09,27,8.90
2007,01,09,09,28,8.90
2007,01,09,09,29,8.90
2007,01,09,09,30,9.00
2007,01,09,09,31,9.00
2007,01,09,09,32,9.00
2007,01,09,09,33,9.00
2007,01,09,09,34,9.00
2007,01,09,09,35,9.00
2007,01,09,09,36,8.90
2007,01,09,09,37,8.90
2007,01,09,09,38,8.90
2007,01,09,09,39,8.90
2007,01,09,09,40,8.90
2007,01,09,09,41,8.90
2007,01,09,09,42,8.90
2007,01,09,09,43,8.80
2007,01,09,09,44,8.80
2007,01,09,09,45,8.80
2007,01,09,09,46,8.70
2007,01,09,09,47,8.70
2007,01,09,09,48,8.70
2007,01,09,09,49,8.70
2007,01,09,09,50,8.70
2007,01,09,09,51,8.70
2007,01,09,09,52,8.70
2007,01,09,09,53,8.70
2007,01,09,09,54,8.70
2007,01,09,09,55,8.70
2007,01,09,09,56,8.70
2007,01,09,09,57,8.70
2007,01,09,09,58,8.70
2007,01,09,09,59,8.70
2007,01,09,10,00,8.70
2007,01,09,10,01,8.70
2007,01,09,10,02,8.70
2007,01,09,10,03,8.70
2007,01,09,10,04,8.70
2007,01,09,10,05,8.70
2007,01,09,10,06,8.70
2007,01,09,10,07,8.70
2007,01,09,10,08,8.70
2007,01,09,10,09,8.70
2007,01,09,10,10,8.70
2007,01,09,10,11,8.70
2007,01,09,10,12,8.70
2007,01,09,10,13,8.70
2007,01,09,10,14,8.70
2007,01,09,10,15,8.70
2007,01,09,10,16,8.70
2007,01,09,10,17,8.70
2007,01,09,10,18,8.70
2007,01,09,10,19,8.70
2007,01,09,10,20,8.70
2007,01,09,10,21,8.70
2007,01,09,10,22,8.70
2007,01,09,10,23,8.70
2007,01,09,10,24,8.70
2007,01,09,10,25,8.70
2007,01,09,10,26,8.70
2007,01,09,10,27,8.70
2007,01,09,10,28,8.70
2007,01,09,10,29,8.70
2007,01,09,10,30,8.70
2007,01,09,10,31,8.60
2007,01,09,10,32,8.70
2007,01,09,10,33,8.70
2007,01,09,10,34,8.70
2007,01,09,10,35,8.70
2007,01,09,10,36,8.70
2007,01,09,10,37,8.70
2007,01,09,10,38,8.70
2007,01,09,10,39,8.70
2007,01,09,10,40,8.70
2007,01,09,10,41,8.70
2007,01,09,10,42,8.70
2007,01,09,10,43,8.70
2007,01,09,10,44,8.70
2007,01,09,10,45,8.70
2007,01,09,10,46,8.70
2007,01,09,10,47,8.70
2007,01,09,10,48,8.70
2007,01,09,10,49,8.70
2007,01,09,10,50,8.70
2007,01,09,10,51,8.70
2007,01,09,10,52,8.70
2007,01,09,10,53,8.70
2007,01,09,10,54,8.70
2007,01,09,10,55,8.70
2007,01,09,10,56,8.70
2007,01,09,10,57,8.70
2007,01,09,10,58,8.70
2007,01,09,10,59,8.70
2007,01,09,11,00,8.70
2007,01,09,11,01,8.70
2007,01,09,11,02,8.70
2007,01,09,11,03,8.70
2007,01,09,11,04,8.70
2007,01,09,11,05,8.70
2007,01,09,11,06,8.80
2007,01,09,11,07,8.80
2007,01,09,11,08,8.80
2007,01,09,11,09,8.80
2007,01,09,11,10,8.80
2007,01,09,11,11,8.80
2007,01,09,11,12,8.80
2007,01,09,11,13,8.80
2007,01,09,11,14,8.80
2007,01,09,11,15,8.90
2007,01,09,11,16,8.80
2007,01,09,11,17,8.80
2007,01,09,11,18,8.80
2007,01,09,11,19,8.80
2007,01,09,11,20,8.80
2007,01,09,11,21,8.80
2007,01,09,11,22,8.80
2007,01,09,11,23,8.80
2007,01,09,11,24,8.80
2007,01,09,11,25,8.80
2007,01,09,11,26,8.80
2007,01,09,11,27,8.80
2007,01,09,11,28,8.90
2007,01,09,11,29,8.90
2007,01,09,11,30,8.90
2007,01,09,11,31,8.90
2007,01,09,11,32,8.90
2007,01,09,11,33,8.90
2007,01,09,11,34,8.90
2007,01,09,11,35,9.00
2007,01,09,11,36,9.00
2007,01,09,11,37,9.00
2007,01,09,11,38,9.10
2007,01,09,11,39,9.10
2007,01,09,11,40,9.10
2007,01,09,11,41,9.10
2007,01,09,11,42,9.20
2007,01,09,11,43,9.20
2007,01,09,11,44,9.20
2007,01,09,11,45,9.20
2007,01,09,11,46,9.20
2007,01,09,11,47,9.20
2007,01,09,11,48,9.20
2007,01,09,11,49,9.20
2007,01,09,11,50,9.20
2007,01,09,11,51,9.20
2007,01,09,11,52,9.20
2007,01,09,11,53,9.20
2007,01,09,11,54,9.20
2007,01,09,11,55,9.20
2007,01,09,11,56,9.20
2007,01,09,11,57,9.20
2007,01,09,11,58,9.20
2007,01,09,11,59,9.20
2007,01,09,12,00,9.20
2007,01,09,12,01,9.20
2007,01,09,12,02,9.20
2007,01,09,12,03,9.20
2007,01,09,12,04,9.20
2007,01,09,12,05,9.20
2007,01,09,12,06,9.20
2007,01,09,12,07,9.20
2007,01,09,12,08,9.20
2007,01,09,12,09,9.20
2007,01,09,12,10,9.20
2007,01,09,12,11,9.20
2007,01,09,12,12,9.20
2007,01,09,12,13,9.20
2007,01,09,12,14,9.20
2007,01,09,12,15,9.20
2007,01,09,12,16,9.30
2007,01,09,12,17,9.30
2007,01,09,12,18,9.30
2007,01,09,12,19,9.30
2007,01,09,12,20,9.30
2007,01,09,12,21,9.30
2007,01,09,12,22,9.20
2007,01,09,12,23,9.20
2007,01,09,12,24,9.20
2007,01,09,12,25,9.30
2007,01,09,12,26,9.30
2007,01,09,12,27,9.30
2007,01,09,12,28,9.30
2007,01,09,12,29,9.30
2007,01,09,12,30,9.40
2007,01,09,12,31,9.40
2007,01,09,12,32,9.40
2007,01,09,12,33,9.40
2007,01,09,12,34,9.40
2007,01,09,12,35,9.50
2007,01,09,12,36,9.50
2007,01,09,12,37,9.50
2007,01,09,12,38,9.60
2007,01,09,12,39,9.60
2007,01,09,12,40,9.60
2007,01,09,12,41,9.50
2007,01,09,12,42,9.50
2007,01,09,12,43,9.40
2007,01,09,12,44,9.40
2007,01,09,12,45,9.30
2007,01,09,12,46,9.30
2007,01,09,12,47,9.30
2007,01,09,12,48,9.20
2007,01,09,12,49,9.20
2007,01,09,12,50,9.20
2007,01,09,12,51,9.20
2007,01,09,12,52,9.20
2007,01,09,12,53,9.10
2007,01,09,12,54,9.00
2007,01,09,12,55,9.00
2007,01,09,12,56,8.90
2007,01,09,12,57,8.80
2007,01,09,12,58,8.80
2007,01,09,12,59,8.70
2007,01,09,13,00,8.70
2007,01,09,13,01,8.70
2007,01,09,13,02,8.70
2007,01,09,13,03,8.70
2007,01,09,13,04,8.70
2007,01,09,13,05,8.80
2007,01,09,13,06,8.90
2007,01,09,13,07,9.00
2007,01,09,13,08,9.10
2007,01,09,13,09,9.20
2007,01,09,13,10,9.20
2007,01,09,13,11,9.20
2007,01,09,13,12,9.20
2007,01,09,13,13,9.20
2007,01,09,13,14,9.30
2007,01,09,13,15,9.30
2007,01,09,13,16,9.30
2007,01,09,13,17,9.30
2007,01,09,13,18,9.20
2007,01,09,13,19,9.20
2007,01,09,13,20,9.20
2007,01,09,13,21,9.20
2007,01,09,13,22,9.20
2007,01,09,13,23,9.20
2007,01,09,13,24,9.20
2007,01,09,13,25,9.20
2007,01,09,13,26,9.10
2007,01,09,13,27,9.10
2007,01,09,13,28,9.10
2007,01,09,13,29,9.10
2007,01,09,13,30,9.10
2007,01,09,13,31,9.10
2007,01,09,13,32,9.10
2007,01,09,13,33,9.10
2007,01,09,13,34,9.10
2007,01,09,13,35,9.10
2007,01,09,13,36,9.10
2007,01,09,13,37,9.10
2007,01,09,13,38,9.00
2007,01,09,13,39,9.00
2007,01,09,13,40,9.00
2007,01,09,13,41,9.00
2007,01,09,13,42,9.00
2007,01,09,13,43,9.00
2007,01,09,13,44,8.90
2007,01,09,13,45,8.90
2007,01,09,13,46,8.90
2007,01,09,13,47,8.90
2007,01,09,13,48,8.90
2007,01,09,13,49,8.90
2007,01,09,13,50,8.90
2007,01,09,13,51,8.90
2007,01,09,13,52,8.90
2007,01,09,13,53,8.90
2007,01,09,13,54,8.90
2007,01,09,13,55,8.90
2007,01,09,13,56,8.70
2007,01,09,13,57,8.30
2007,01,09,13,58,7.80
2007,01,09,13,59,7.30
2007,01,09,14,00,7.00
2007,01,09,14,01,6.80
2007,01,09,14,02,6.70
2007,01,09,14,03,6.70
2007,01,09,14,04,6.70
2007,01,09,14,05,6.60
2007,01,09,14,06,6.20
2007,01,09,14,07,6.10
2007,01,09,14,08,6.00
2007,01,09,14,09,6.00
2007,01,09,14,10,5.90
2007,01,09,14,11,5.90
2007,01,09,14,12,5.90
2007,01,09,14,13,5.80
2007,01,09,14,14,5.80
2007,01,09,14,15,5.70
2007,01,09,14,16,5.70
2007,01,09,14,17,5.70
2007,01,09,14,18,5.70
2007,01,09,14,19,5.70
2007,01,09,14,20,5.70
2007,01,09,14,21,5.70
2007,01,09,14,22,5.70
2007,01,09,14,23,5.70
2007,01,09,14,24,5.70
2007,01,09,14,25,5.60
2007,01,09,14,26,5.60
2007,01,09,14,27,5.60
2007,01,09,14,28,5.60
2007,01,09,14,29,5.60
2007,01,09,14,30,5.60
2007,01,09,14,31,5.60
2007,01,09,14,32,5.70
2007,01,09,14,33,5.70
2007,01,09,14,34,5.70
2007,01,09,14,35,5.80
2007,01,09,14,36,5.80
2007,01,09,14,37,5.80
2007,01,09,14,38,5.80
2007,01,09,14,39,5.80
2007,01,09,14,40,5.90
2007,01,09,14,41,5.90
2007,01,09,14,42,5.90
2007,01,09,14,43,5.90
2007,01,09,14,44,5.90
2007,01,09,14,45,5.90
2007,01,09,14,46,5.90
2007,01,09,14,47,5.90
2007,01,09,14,48,5.90
2007,01,09,14,49,5.90
2007,01,09,14,50,5.90
2007,01,09,14,51,6.00
2007,01,09,14,52,5.90
2007,01,09,14,53,5.90
2007,01,09,14,54,5.90
2007,01,09,14,55,5.90
2007,01,09,14,56,6.00
2007,01,09,14,57,6.00
2007,01,09,14,58,6.00
2007,01,09,14,59,6.00
2007,01,09,15,00,6.00
2007,01,09,15,01,6.00
2007,01,09,15,02,6.00
2007,01,09,15,03,5.90
2007,01,09,15,04,5.90
2007,01,09,15,05,6.00
2007,01,09,15,06,6.00
2007,01,09,15,07,6.00
2007,01,09,15,08,6.00
2007,01,09,15,09,6.00
2007,01,09,15,10,6.10
2007,01,09,15,11,6.10
2007,01,09,15,12,6.10
2007,01,09,15,13,6.00
2007,01,09,15,14,6.00
2007,01,09,15,15,6.00
2007,01,09,15,16,6.00
2007,01,09,15,17,6.00
2007,01,09,15,18,5.90
2007,01,09,15,19,5.90
2007,01,09,15,20,5.90
2007,01,09,15,21,5.90
2007,01,09,15,22,5.80
2007,01,09,15,23,5.90
2007,01,09,15,24,5.90
2007,01,09,15,25,5.90
2007,01,09,15,26,5.90
2007,01,09,15,27,5.90
2007,01,09,15,28,5.90
2007,01,09,15,29,5.90
2007,01,09,15,30,6.00
2007,01,09,15,31,6.00
2007,01,09,15,32,6.00
2007,01,09,15,33,6.00
2007,01,09,15,34,6.00
2007,01,09,15,35,5.90
2007,01,09,15,36,5.90
2007,01,09,15,37,5.90
2007,01,09,15,38,5.90
2007,01,09,15,39,5.90
2007,01,09,15,40,5.90
2007,01,09,15,41,5.90
2007,01,09,15,42,5.80
2007,01,09,15,43,5.80
2007,01,09,15,44,5.80
2007,01,09,15,45,5.80
2007,01,09,15,46,5.70
2007,01,09,15,47,5.70
2007,01,09,15,48,5.70
2007,01,09,15,49,5.70
2007,01,09,15,50,5.70
2007,01,09,15,51,5.70
2007,01,09,15,52,5.70
2007,01,09,15,53,5.70
2007,01,09,15,54,5.70
2007,01,09,15,55,5.70
2007,01,09,15,56,5.70
2007,01,09,15,57,5.70
2007,01,09,15,58,5.70
2007,01,09,15,59,5.70
2007,01,09,16,00,5.70
2007,01,09,16,01,5.70
2007,01,09,16,02,5.70
2007,01,09,16,03,5.70
2007,01,09,16,04,5.70
2007,01,09,16,05,5.70
2007,01,09,16,06,5.60
2007,01,09,16,07,5.60
2007,01,09,16,08,5.70
2007,01,09,16,09,5.70
2007,01,09,16,10,5.70
2007,01,09,16,11,5.70
2007,01,09,16,12,5.60
2007,01,09,16,13,5.60
2007,01,09,16,14,5.60
2007,01,09,16,15,5.50
2007,01,09,16,16,5.50
2007,01,09,16,17,5.50
2007,01,09,16,18,5.50
2007,01,09,16,19,5.50
2007,01,09,16,20,5.50
2007,01,09,16,21,5.40
2007,01,09,16,22,5.40
2007,01,09,16,23,5.40
2007,01,09,16,24,5.40
2007,01,09,16,25,5.40
2007,01,09,16,26,5.40
2007,01,09,16,27,5.40
2007,01,09,16,28,5.40
2007,01,09,16,29,5.40
2007,01,09,16,30,5.40
2007,01,09,16,31,5.40
2007,01,09,16,32,5.40
2007,01,09,16,33,5.40
2007,01,09,16,34,5.40
2007,01,09,16,35,5.40
2007,01,09,16,36,5.40
2007,01,09,16,37,5.30
2007,01,09,16,38,5.40
2007,01,09,16,39,5.40
2007,01,09,16,40,5.40
2007,01,09,16,41,5.40
2007,01,09,16,42,5.40
2007,01,09,16,43,5.40
2007,01,09,16,44,5.40
2007,01,09,16,45,5.40
2007,01,09,16,46,5.50
2007,01,09,16,47,5.50
2007,01,09,16,48,5.50
2007,01,09,16,49,5.50
2007,01,09,16,50,5.50
2007,01,09,16,51,5.40
2007,01,09,16,52,5.40
2007,01,09,16,53,5.30
2007,01,09,16,54,5.30
2007,01,09,16,55,5.30
2007,01,09,16,56,5.30
2007,01,09,16,57,5.30
2007,01,09,16,58,5.30
2007,01,09,16,59,5.30
2007,01,09,17,00,5.30
2007,01,09,17,01,5.30
2007,01,09,17,02,5.30
2007,01,09,17,03,5.30
2007,01,09,17,04,5.20
2007,01,09,17,05,5.20
2007,01,09,17,06,5.20
2007,01,09,17,07,5.20
2007,01,09,17,08,5.30
2007,01,09,17,09,5.30
2007,01,09,17,10,5.30
2007,01,09,17,11,5.20
2007,01,09,17,12,5.20
2007,01,09,17,13,5.20
2007,01,09,17,14,5.10
2007,01,09,17,15,5.10
2007,01,09,17,16,5.10
2007,01,09,17,17,5.10
2007,01,09,17,18,5.10
2007,01,09,17,19,5.10
2007,01,09,17,20,5.10
2007,01,09,17,21,5.10
2007,01,09,17,22,5.10
2007,01,09,17,23,5.10
2007,01,09,17,24,5.10
2007,01,09,17,25,5.10
2007,01,09,17,26,5.10
2007,01,09,17,27,5.10
2007,01,09,17,28,5.20
2007,01,09,17,29,5.20
2007,01,09,17,30,5.20
2007,01,09,17,31,5.20
2007,01,09,17,32,5.20
2007,01,09,17,33,5.10
2007,01,09,17,34,5.10
2007,01,09,17,35,5.10
2007,01,09,17,36,5.10
2007,01,09,17,37,5.10
2007,01,09,17,38,5.10
2007,01,09,17,39,5.10
2007,01,09,17,40,5.10
2007,01,09,17,41,5.10
2007,01,09,17,42,5.10
2007,01,09,17,43,5.10
2007,01,09,17,44,5.10
2007,01,09,17,45,5.10
2007,01,09,17,46,5.10
2007,01,09,17,47,5.00
2007,01,09,17,48,4.90
2007,01,09,17,49,4.90
2007,01,09,17,50,4.90
2007,01,09,17,51,4.90
2007,01,09,17,52,4.90
2007,01,09,17,53,4.90
2007,01,09,17,54,4.90
2007,01,09,17,55,4.90
2007,01,09,17,56,4.90
2007,01,09,17,57,4.90
2007,01,09,17,58,4.90
2007,01,09,17,59,4.90
2007,01,09,18,00,4.80
2007,01,09,18,01,4.70
2007,01,09,18,02,4.60
2007,01,09,18,03,4.40
2007,01,09,18,04,4.30
2007,01,09,18,05,4.20
2007,01,09,18,06,4.20